Flag Weather past 2 weeks in Zweibrücken, Rhineland-Palatinate, Germany

Now
41 °F

Passing clouds.


Feels Like: 38 °F
Forecast: 36 / 43 °F
Wind: 5 mph from Northeast

Location: Saarbruecken / Ensheim

Current Time: Nov 27, 2014 at 1:50:15 AM

Latest Report: Nov 27, 2014 at 12:50 AM


Visibility: 4 mi

Pressure: 29.89 "Hg

Humidity: 93%

Dew point: 39 °F

Location of ZweibrückenLocation

Historic Weather in Zweibrücken — Graph

°F

Zweibrücken temperature yesterday

Maximum temperature yesterday: 43 °F (at 2:50 AM)
Minimum temperature yesterday: 41 °F (at 12:20 AM)
Average temperature yesterday: 42 °F

Past Weeks' High & Low Weather Summary

 TemperatureHumidityPressure
High55 °F (Nov 22, 1:20 PM)100% (Nov 12, 8:20 AM)30.27 "Hg (Nov 12, 8:20 AM)
Low39 °F (Nov 19, 7:50 PM)72% (Nov 22, 1:20 PM)29.53 "Hg (Nov 15, 3:20 AM)
Average45 °F91%29.92 "Hg
* Reported Nov 12 12:20 AM — Nov 27 12:20 AM, Zweibrücken, Weather by CustomWeather, © 2014

Note: Actual official high and low records may vary slightly from our data, if they occured in-between our weather recording intervals... More about our weather records

Advertising

Zweibrücken weather history for previous 24 hours

 ConditionsComfort  
Time TempWeatherWind HumidityBarometerVisibility
12:20 AM
Nov 27
41 °FFog.8 mph93%29.89 "Hg3 mi
11:50 PM
Nov 26
41 °FFog.8 mph93%29.89 "Hg3 mi
11:20 PM41 °FFog.7 mph93%29.89 "Hg3 mi
10:50 PM41 °FFog.8 mph93%29.89 "Hg3 mi
10:20 PM41 °FFog.7 mph93%29.89 "Hg3 mi
9:50 PM41 °FFog.9 mph93%29.92 "Hg3 mi
9:20 PM41 °FFog.8 mph93%29.92 "Hg3 mi
8:50 PM41 °FFog.8 mph93%29.92 "Hg3 mi
8:20 PM41 °FFog.7 mph93%29.92 "Hg3 mi
7:50 PM41 °FFog.8 mph93%29.92 "Hg3 mi
7:20 PM41 °FFog.8 mph93%29.92 "Hg3 mi
6:50 PM41 °FFog.7 mph93%29.92 "Hg3 mi
6:20 PM41 °FFog.7 mph93%29.92 "Hg3 mi
5:50 PM43 °FFog.7 mph87%29.92 "Hg3 mi
5:20 PM43 °FDrizzle. Fog.6 mph87%29.92 "Hg3 mi
4:50 PM43 °FFog.8 mph87%29.92 "Hg3 mi
4:20 PM43 °FFog.10 mph87%29.92 "Hg3 mi
3:50 PM43 °FFog.10 mph87%29.92 "Hg3 mi
3:20 PM43 °FFog.10 mph87%29.92 "Hg3 mi
2:50 PM43 °FFog.12 mph87%29.92 "Hg3 mi
2:20 PM43 °FFog.9 mph87%29.95 "Hg3 mi
1:50 PM43 °FFog.9 mph87%29.95 "Hg3 mi
1:20 PM43 °FFog.10 mph87%29.95 "Hg2 mi
12:50 PM43 °FFog.8 mph87%29.95 "Hg2 mi
12:20 PM43 °FFog.10 mph87%29.95 "Hg2 mi
11:50 AM41 °FFog.9 mph93%29.98 "Hg2 mi
11:20 AM41 °FFog.10 mph93%29.98 "Hg2 mi
10:50 AM41 °FFog.8 mph93%29.98 "Hg2 mi
10:20 AM41 °FFog.9 mph93%29.98 "Hg2 mi
9:50 AM41 °FFog.9 mph93%29.98 "Hg2 mi
9:20 AM41 °FFog.10 mph93%29.98 "Hg3 mi
8:50 AM41 °FFog.9 mph93%29.98 "Hg3 mi
8:20 AM41 °FFog.9 mph93%29.98 "Hg3 mi
7:50 AM41 °FFog.9 mph93%29.98 "Hg3 mi
7:20 AM41 °FLight rain. Passing clouds.8 mph93%29.98 "Hg5 mi
6:50 AM41 °FLight rain. Passing clouds.7 mph93%29.98 "Hg5 mi
6:20 AM41 °FPassing clouds.8 mph93%29.98 "Hg5 mi
5:50 AM41 °FPassing clouds.8 mph93%29.98 "Hg6 mi
5:20 AM43 °FPassing clouds.10 mph87%29.98 "HgN/A
4:20 AM43 °FPassing clouds.12 mph87%29.98 "HgN/A
3:50 AM43 °FLight rain. Passing clouds.12 mph87%30.01 "HgN/A
3:20 AM43 °FPassing clouds.8 mph87%30.01 "HgN/A
2:50 AM43 °FPassing clouds.8 mph87%30.01 "HgN/A
2:20 AM41 °FPassing clouds.9 mph93%30.04 "Hg5 mi
1:50 AM41 °FPassing clouds.8 mph93%30.04 "Hg5 mi
1:20 AM41 °FPassing clouds.6 mph93%30.04 "Hg5 mi
Weather by CustomWeather, © 2014

See weather overviewHow to use our weather pages